Weather History for Grand Island, NE

Change the Weather History Date:

Tuesday, November 9, 2010

  Actual Average Record
Temperature  
Mean Temperature 57 °F 42 °F  
Max Temperature 70 °F 53 °F 79 °F (1999)
Min Temperature 43 °F 30 °F 11 °F (1945)
Degree Days  
Heating Degree Days 8 23  
Month to date heating degree days 136 192  
Since 1 July heating degree days 490 715  
Cooling Degree Days 0 0  
Month to date cooling degree days 0 0  
Year to date cooling degree days 1139 1034  
Growing Degree Days 6 (Base 50)    
Moisture  
Dew Point 42 °F    
Average Humidity 61    
Maximum Humidity 86    
Minimum Humidity 36    
Precipitation  
Precipitation 0.00 in 0.03 in 1.81 in (1919)
Month to date precipitation 0.00 0.38  
Year to date precipitation 28.61 25.24  
Snow  
Snow 0.00 in 0.10 in 8.60 in (1946)
Month to date snowfall 0.0 0.7  
Since 1 July snowfall 0.0 1.8  
Since 1 September snowfall 0.0 1.8  
Snow Depth 0.00 in    
Sea Level Pressure  
Sea Level Pressure 29.60 in    
Wind  
Wind Speed 15 mph (SSE)    
Max Wind Speed 29 mph    
Max Gust Speed 37 mph    
Visibility 10 miles    
Events      
T = Trace of Precipitation, MM = Missing Value Source: NWS Daily Summary

Daily Weather History Graph

Daily Weather History Graph

Search for Another Location

Airport:

Trip Planner

Search our weather history database for the weather conditions in past years. The results will help you decide how hot, cold, wet, or windy it might be!

Date:

Astronomy

Nov. 09, 2010 Rise Set
Actual Time 7:13 AM CST 5:20 PM CST
Civil Twilight 6:44 AM CST 5:49 PM CST
Nautical Twilight 6:11 AM CST 6:22 PM CST
Astronomical Twilight 5:39 AM CST 6:54 PM CST
Moon 10:55 AM CST (11/9) 8:19 PM CST (11/9)
Length of Visible Light 11h 04m
Length of Day
10h 06m
Waxing Crescent, 15% of the Moon is Illuminated
Nov 9
Waxing Crescent
Nov 13
First Quarter
Nov 21
Full
Nov 28
Last Quarter
Dec 5
New

Hourly Weather History & Observations

Time (CST) Temp. Windchill Dew Point Humidity Pressure Visibility Wind Dir Wind Speed Gust Speed Precip Events Conditions
12:53 AM 44.1 °F 40.1 °F 35.1 °F 71% 29.64 in 10.0 mi South 6.9 mph - N/A   Clear
1:53 AM 45.0 °F 40.6 °F 37.0 °F 74% 29.62 in 10.0 mi SSE 8.1 mph - N/A   Clear
2:53 AM 44.1 °F 39.5 °F 37.0 °F 76% 29.60 in 10.0 mi SSE 8.1 mph - N/A   Clear
3:53 AM 46.0 °F 40.6 °F 39.9 °F 79% 29.59 in 10.0 mi South 11.5 mph - N/A   Clear
4:53 AM 46.0 °F 40.2 °F 41.0 °F 83% 29.59 in 10.0 mi South 12.7 mph - N/A   Clear
5:53 AM 46.0 °F 39.6 °F 41.0 °F 83% 29.60 in 10.0 mi SSE 15.0 mph - N/A   Clear
6:53 AM 46.9 °F - 42.1 °F 83% 29.58 in 10.0 mi SSE 13.8 mph - N/A   Clear
7:53 AM 46.9 °F - 43.0 °F 86% 29.60 in 10.0 mi SSE 15.0 mph - N/A   Clear
8:53 AM 51.8 °F - 44.6 °F 76% 29.59 in 10.0 mi SSE 20.7 mph 25.3 mph N/A   Clear
9:53 AM 57.0 °F - 44.1 °F 62% 29.59 in 10.0 mi South 19.6 mph 28.8 mph N/A   Clear
10:53 AM 61.0 °F - 43.0 °F 52% 29.58 in 10.0 mi South 19.6 mph 26.5 mph N/A   Clear
11:53 AM 64.9 °F - 43.0 °F 45% 29.55 in 10.0 mi SSE 17.3 mph 25.3 mph N/A   Clear
12:53 PM 66.0 °F - 42.1 °F 42% 29.55 in 10.0 mi South 25.3 mph 31.1 mph N/A   Clear
1:53 PM 69.1 °F - 42.1 °F 38% 29.52 in 10.0 mi SSE 24.2 mph 31.1 mph N/A   Clear
2:53 PM 69.1 °F - 41.0 °F 36% 29.52 in 10.0 mi South 25.3 mph 32.2 mph N/A   Clear
3:53 PM 68.0 °F - 42.1 °F 39% 29.55 in 10.0 mi South 23.0 mph 32.2 mph N/A   Clear
4:53 PM 64.9 °F - 44.1 °F 47% 29.56 in 10.0 mi SSE 12.7 mph - N/A   Clear
5:53 PM 62.1 °F - 44.1 °F 52% 29.57 in 10.0 mi SSE 15.0 mph - N/A   Clear
6:53 PM 60.1 °F - 45.0 °F 57% 29.59 in 10.0 mi South 15.0 mph - N/A   Clear
7:53 PM 57.0 °F - 46.0 °F 67% 29.62 in 10.0 mi South 10.4 mph - N/A   Clear
8:53 PM 55.4 °F - 46.4 °F 72% 29.65 in 10.0 mi South 6.9 mph - N/A   Clear
9:53 PM 50.0 °F - 39.9 °F 68% 29.67 in 10.0 mi NNW 10.4 mph - N/A   Clear
10:53 PM 46.0 °F 40.2 °F 37.0 °F 71% 29.69 in 10.0 mi North 12.7 mph - N/A   Clear
11:53 PM 45.0 °F 37.6 °F 36.0 °F 71% 29.70 in 10.0 mi North 17.3 mph 21.9 mph N/A   Clear